Location: ???????????
(54.5822°N, 39.1075°E)
Time: 12:55:15
(UTC+00:00)

Cosmos 1328 Rocket - Pass Details

Date: 19 May 2025
Orbit: 596 x 618 km, 82.5° (Epoch: 20 June)

Event Time Altitude Azimuth Distance (km) Brightness Sun altitude
Exits shadow 21:46:21 27° 174° (S) 1,177 4.4 -15.2°
Maximum altitude 21:48:37 68° 98° (E) 654 3.6 -15.2°
Drops below altitude 10° 21:52:56 10° 16° (NNE) 1,966 7.5 -15.1°
Sets 21:55:11 0° 14° (NNE) 2,879 8.9 -15.1°
